Location: Sungai Bunut
(2.6333°N, 113.7333°E)
Time: 17:54:15
(UTC+00:00)

S-56A Canister/Altair - Pass Details

Date: 06 December 2023
Orbit: 640 x 2488 km, 38.9° (Epoch: 20 February)

Event Time Altitude Azimuth Distance (km) Brightness Sun altitude
Rises 11:22:37 0° 313° (NW) 3,826 11.4 -16.4°
Reaches altitude 10° 11:24:54 10° 314° (NW) 3,065 10.9 -16.9°
Maximum altitude 11:32:41 84° 42° (NE) 1,557 8.9 -18.7°
Drops below altitude 10° 11:44:45 10° 130° (SE) 4,574 11.2 -21.5°
Sets 11:48:54 0° 130° (SE) 5,795 11.8 -22.4°
